Tracking 22124 objects as of 24-Jan-2021
HD Live streaming from Space Station
objects crossing your sky now

EKRAN 1

Track EKRAN 1 now!
EKRAN 1 is classified as:


NORAD ID: 9503
Int'l Code: 1976-107A
Perigee: 35,504.5 km
Apogee: 36,055.3 km
Inclination: 8.5 °
Period: 1,435.4 minutes
Semi major axis: 42150 km
RCS: 3.5481 m2 (large)
Launch date: October 26, 1976
Source: Commonwealth of Independent States (former USSR) (CIS)
Launch site: TYURATAM MISSILE AND SPACE COMPLEX (TTMTR)
aabbcc
Your satellite tracking list
Your tracking list is empty




NASA's NSSDC Master Catalog

Two Line Element Set (TLE):
1 09503U 76107A   21023.79582847 -.00000014  00000-0  00000-0 0  9992
2 09503   8.5172 297.7014 0065339 127.3579  53.5182  1.00321099178759
Source of the keplerian elements: AFSPC